Weather History for KT82 - August, 2013

Change the Weather History Date:

Sunday, August 4, 2013

  Actual Average (KSAT) Record (KSAT)
Temperature  
Mean Temperature 84 °F 86 °F  
Max Temperature 95 °F 96 °F 103 °F (1951)
Min Temperature 73 °F 75 °F 67 °F (1965)
Degree Days  
Heating Degree Days 0 0  
Month to date heating degree days 0  
Since 1 June heating degree days 0  
Since 1 July heating degree days 0  
Cooling Degree Days 19 21  
Month to date cooling degree days 84  
Year to date cooling degree days 1844  
Since 1 June cooling degree days 1215  
Growing Degree Days 34 (Base 50)    
Moisture  
Dew Point 66 °F    
Average Humidity 57    
Maximum Humidity 86    
Minimum Humidity 32    
Precipitation  
Precipitation 0.00 in 0.05 in 1.83 in (1939)
Month to date precipitation 0.19  
Year to date precipitation 19.04  
Snow  
Snow 0.00 in - - ()
Month to date snowfall  
Since 1 June snowfall  
Since 1 July snowfall  
Snow Depth -    
Sea Level Pressure  
Sea Level Pressure 30.06 in    
Wind  
Wind Speed 8 mph (South)    
Max Wind Speed 13 mph    
Max Gust Speed 21 mph    
Visibility 10 miles    
Events      
T = Trace of Precipitation, MM = Missing Value Source: NWS Daily Summary

Daily Weather History Graph

Daily Weather History Graph

Search for Another Location

Airport or City:

Trip Planner

Search our weather history database for the weather conditions in past years. The results will help you decide how hot, cold, wet, or windy it might be!

Date:

Astronomy

Aug. 04, 2013 Rise Set
Actual Time 6:56 AM CDT 8:26 PM CDT
Civil Twilight 6:30 AM CDT 8:52 PM CDT
Nautical Twilight 5:59 AM CDT 9:23 PM CDT
Astronomical Twilight 5:27 AM CDT 9:55 PM CDT
Moon 5:00 AM CDT (8/4) 6:50 PM CDT (8/4)
Length of Visible Light 14h 22m
Length of Day
13h 30m
Waning Crescent, 4% of the Moon is Illuminated
Aug 4
Waning Crescent
Aug 6
New
Aug 14
First Quarter
Aug 20
Full
Aug 28
Last Quarter

Hourly Weather History & Observations

Time (CDT) Temp. Heat Index Dew Point Humidity Pressure Visibility Wind Dir Wind Speed Gust Speed Precip Events Conditions
12:15 AM 82.4 °F 85.8 °F 68.9 °F 64% 30.06 in 10.0 mi SSE 11.5 mph 20.7 mph N/A   Clear
12:35 AM 81.5 °F 84.8 °F 69.3 °F 66% 30.07 in 10.0 mi SSE 5.8 mph - N/A   Clear
12:55 AM 80.8 °F 84.1 °F 69.6 °F 69% 30.07 in 10.0 mi South 5.8 mph - N/A   Clear
1:15 AM 79.9 °F - 68.5 °F 68% 30.08 in 10.0 mi South 10.4 mph 16.1 mph N/A   Clear
1:35 AM 79.3 °F - 68.4 °F 69% 30.09 in 10.0 mi South 12.7 mph 16.1 mph N/A   Clear
1:55 AM 78.4 °F - 68.7 °F 72% 30.09 in 10.0 mi South 5.8 mph - N/A   Clear
2:15 AM 77.9 °F - 68.9 °F 74% 30.09 in 10.0 mi South 3.5 mph - N/A   Clear
2:35 AM 77.4 °F - 68.7 °F 75% 30.09 in 10.0 mi South 6.9 mph - N/A   Clear
2:55 AM 76.5 °F - 68.5 °F 76% 30.09 in 10.0 mi South 5.8 mph - N/A   Clear
3:15 AM 76.5 °F - 68.4 °F 76% 30.09 in 10.0 mi South 6.9 mph - N/A   Clear
3:35 AM 75.9 °F - 68.2 °F 77% 30.08 in 10.0 mi South 6.9 mph - N/A   Clear
3:55 AM 75.2 °F - 68.2 °F 79% 30.08 in 10.0 mi South 6.9 mph - N/A   Clear
4:15 AM 74.8 °F - 68.5 °F 81% 30.08 in 10.0 mi South 9.2 mph - N/A   Clear
4:35 AM 75.2 °F - 68.9 °F 81% 30.08 in 10.0 mi South 9.2 mph - N/A   Clear
4:55 AM 74.7 °F - 68.5 °F 81% 30.07 in 10.0 mi South 6.9 mph - N/A   Clear
5:15 AM 74.5 °F - 68.4 °F 81% 30.06 in 10.0 mi South 5.8 mph - N/A   Clear
5:35 AM 74.1 °F - 68.4 °F 82% 30.06 in 10.0 mi South 6.9 mph - N/A   Clear
5:55 AM 73.6 °F - 68.5 °F 84% 30.06 in 10.0 mi South 6.9 mph - N/A   Clear
6:15 AM 73.6 °F - 68.9 °F 85% 30.07 in 10.0 mi South 8.1 mph - N/A   Clear
6:35 AM 73.6 °F - 68.9 °F 85% 30.08 in 10.0 mi SSW 8.1 mph - N/A   Clear
6:55 AM 73.4 °F - 68.9 °F 86% 30.09 in 10.0 mi South 6.9 mph - N/A   Clear
7:15 AM 73.4 °F - 68.9 °F 86% 30.09 in 10.0 mi SSW 5.8 mph - N/A   Clear
7:35 AM 73.4 °F - 69.1 °F 86% 30.10 in 10.0 mi SSW 3.5 mph - N/A   Clear
7:55 AM 74.3 °F - 69.3 °F 84% 30.10 in 10.0 mi SSW 4.6 mph - N/A   Scattered Clouds
8:15 AM 75.9 °F - 69.8 °F 81% 30.11 in 10.0 mi SSW 5.8 mph - N/A   Mostly Cloudy
8:35 AM 77.0 °F - 69.1 °F 76% 30.11 in 10.0 mi SSW 10.4 mph - N/A   Mostly Cloudy
8:55 AM 77.4 °F - 68.9 °F 75% 30.11 in 10.0 mi SSW 10.4 mph - N/A   Mostly Cloudy
9:15 AM 79.2 °F - 68.9 °F 71% 30.11 in 10.0 mi SSW 11.5 mph - N/A   Mostly Cloudy
9:35 AM 79.9 °F - 68.5 °F 68% 30.11 in 10.0 mi SSW 10.4 mph - N/A   Scattered Clouds
9:55 AM 79.7 °F - 68.0 °F 67% 30.11 in 10.0 mi South 10.4 mph - N/A   Clear
10:15 AM 81.0 °F 83.9 °F 68.7 °F 66% 30.11 in 10.0 mi SSW 9.2 mph - N/A   Clear
10:35 AM 82.2 °F 85.3 °F 68.4 °F 63% 30.11 in 10.0 mi South 8.1 mph - N/A   Scattered Clouds
10:55 AM 82.8 °F 85.3 °F 67.1 °F 59% 30.11 in 10.0 mi South 5.8 mph - N/A   Clear
11:15 AM 84.7 °F 87.4 °F 66.9 °F 55% 30.11 in 10.0 mi SW 6.9 mph - N/A   Scattered Clouds
11:35 AM 86.7 °F 89.0 °F 66.0 °F 50% 30.11 in 10.0 mi SSW 8.1 mph - N/A   Scattered Clouds
11:55 AM 87.1 °F 89.5 °F 66.2 °F 50% 30.10 in 10.0 mi SSE 3.5 mph - N/A   Scattered Clouds
12:15 PM 88.0 °F 90.0 °F 65.5 °F 47% 30.10 in 10.0 mi South 4.6 mph 18.4 mph N/A   Scattered Clouds
12:35 PM 89.4 °F 91.2 °F 65.1 °F 44% 30.09 in 10.0 mi SSE 8.1 mph - N/A   Scattered Clouds
12:55 PM 89.1 °F 91.0 °F 65.1 °F 45% 30.09 in 10.0 mi SSW 9.2 mph - N/A   Scattered Clouds
1:15 PM 90.1 °F 92.0 °F 64.8 °F 43% 30.08 in 10.0 mi South 4.6 mph - N/A   Scattered Clouds
1:35 PM 91.8 °F 93.4 °F 64.0 °F 40% 30.07 in 10.0 mi SE 6.9 mph - N/A   Scattered Clouds
1:55 PM 90.7 °F 91.7 °F 63.5 °F 40% 30.06 in 10.0 mi South 11.5 mph 17.3 mph N/A   Scattered Clouds
2:15 PM 91.9 °F 93.7 °F 64.2 °F 40% 30.06 in 10.0 mi South 10.4 mph 16.1 mph N/A   Scattered Clouds
2:35 PM 92.7 °F 94.0 °F 63.5 °F 38% 30.05 in 10.0 mi South 9.2 mph 16.1 mph N/A   Mostly Cloudy
2:55 PM 91.8 °F 92.6 °F 62.6 °F 38% 30.04 in 10.0 mi South 5.8 mph 18.4 mph N/A   Scattered Clouds
3:15 PM 92.1 °F 93.2 °F 63.0 °F 38% 30.04 in 10.0 mi South 9.2 mph - N/A   Scattered Clouds
3:35 PM 93.7 °F 94.9 °F 62.8 °F 36% 30.03 in 10.0 mi SSE 9.2 mph 16.1 mph N/A   Scattered Clouds
3:55 PM 92.5 °F 93.3 °F 62.4 °F 37% 30.02 in 10.0 mi SSW 6.9 mph - N/A   Scattered Clouds
4:15 PM 93.7 °F 94.5 °F 62.2 °F 35% 30.02 in 10.0 mi SSE 11.5 mph 16.1 mph N/A   Scattered Clouds
4:35 PM 93.7 °F 94.1 °F 61.7 °F 34% 30.01 in 10.0 mi SSE 4.6 mph 16.1 mph N/A   Scattered Clouds
4:55 PM 94.8 °F 95.3 °F 61.7 °F 33% 30.00 in 10.0 mi South 11.5 mph 16.1 mph N/A   Scattered Clouds
5:15 PM 92.5 °F 92.6 °F 61.3 °F 35% 30.00 in 10.0 mi South 8.1 mph - N/A   Scattered Clouds
5:35 PM 95.0 °F 95.6 °F 61.7 °F 33% 30.00 in 10.0 mi SSE 6.9 mph - N/A   Scattered Clouds
5:55 PM 94.5 °F 94.8 °F 61.3 °F 33% 30.00 in 10.0 mi SE 4.6 mph - N/A   Scattered Clouds
6:15 PM 94.5 °F 94.4 °F 60.8 °F 32% 29.99 in 10.0 mi SSE 9.2 mph 17.3 mph N/A   Mostly Cloudy
6:35 PM 94.1 °F 94.2 °F 61.0 °F 33% 29.99 in 10.0 mi SSE 12.7 mph - N/A   Scattered Clouds
6:55 PM 93.6 °F 93.8 °F 61.0 °F 34% 29.99 in 10.0 mi SSE 9.2 mph - N/A   Clear
7:15 PM 93.2 °F 92.9 °F 60.1 °F 33% 29.99 in 10.0 mi SSE 5.8 mph 10.4 mph N/A   Clear
7:35 PM 92.7 °F 92.5 °F 60.6 °F 34% 29.99 in 10.0 mi SSE 9.2 mph - N/A   Clear
7:55 PM 91.4 °F 91.7 °F 61.7 °F 37% 29.99 in 10.0 mi South 9.2 mph - N/A   Clear
8:15 PM 90.7 °F 91.0 °F 61.9 °F 38% 29.99 in 10.0 mi SSE 6.9 mph - N/A   Clear
8:35 PM 89.2 °F 89.6 °F 62.2 °F 40% 29.99 in 10.0 mi South 5.8 mph - N/A   Clear
8:55 PM 88.7 °F 89.4 °F 62.6 °F 42% 30.00 in 10.0 mi SSE 4.6 mph - N/A   Clear
9:15 PM 88.0 °F 88.7 °F 62.8 °F 43% 30.00 in 10.0 mi SSE 4.6 mph - N/A   Clear
9:35 PM 87.1 °F 87.8 °F 63.0 °F 44% 30.01 in 10.0 mi SE 4.6 mph - N/A   Clear
9:55 PM 86.4 °F 87.3 °F 63.5 °F 46% 30.01 in 10.0 mi SE 4.6 mph - N/A   Clear
10:15 PM 86.4 °F 87.8 °F 64.6 °F 48% 30.03 in 10.0 mi SSE 6.9 mph - N/A   Clear
10:35 PM 86.2 °F 89.1 °F 67.1 °F 53% 30.04 in 10.0 mi SSE 8.1 mph - N/A   Clear
10:55 PM 85.3 °F 88.5 °F 68.2 °F 56% 30.04 in 10.0 mi SSE 11.5 mph 17.3 mph N/A   Clear
11:15 PM 84.4 °F 87.6 °F 68.4 °F 58% 30.05 in 10.0 mi South 8.1 mph 17.3 mph N/A   Clear
11:35 PM 83.5 °F 86.7 °F 68.2 °F 60% 30.06 in 10.0 mi South 12.7 mph 19.6 mph N/A   Clear
11:55 PM 82.9 °F 85.8 °F 68.0 °F 60% 30.06 in 10.0 mi South 12.7 mph 18.4 mph N/A   Clear